STARLINK-32355, 61634

Orbit data source: Space-Track

STARLINK-32355, 61634 is a payload satellite owned by SpaceX/Seattle (US) in LEO that was launched on Wed, 23 Oct 2024 UTC via an FALCON 9 launch vehicle from the Air Force Eastern Test Range (AFETR). Payload-class satellites include a variety of spacecraft equipped with specific instruments for various scientific and technological missions. These include communications satellites like Starlink; space stations such as the ISS; scientific satellites like the Hubble; Earth observation satellites from companies like Planet Labs, Umbra, and HawkEye 360; GPS; miniature CubeSats for education and research; and military/defense satellites.

Loading next visibility...
Identifier
61634, 2024-191P
Orbit
LEO
Country
Flag of USUS
Related business
Manufacturer
SpaceX/Seattle
Mission
Operational Commercial Communications
Bus & Motor
STARLINK V2M, Unknown motor
Mass
730 kg wet, ~700 kg dry
Launch date (UTC)
2024-10-23 (1 year ago)
Launch vehicle
FALCON 9
Launch site
Air Force Eastern Test Range (AFETR)
Object type
Payload
Rocket body
Debris
Shape & HBR
Box + 2 Pan, 17.7 m
Radar Cross Section
33.884 m², Large (>1 m²)

Expand to show TLE details & history
Last TLE update: 2 days ago

TLE from 2 days ago
0 STARLINK-32355
1 61634U 24191P   25305.86587125  .00001026  00000-0  46814-4 0  9990
2 61634  43.0001 160.1719 0001099 246.2338 113.8399 15.27571344 57940
Epoch: 2025-11-01T20:46Z
TLE epoch observation values (Epoch: 2025-11-01T20:46:51.276Z)
Latitude
0.00004°
Longitude
167.06848°
Altitude
483.155 km
Speed
7.625 km/s
True Right ascension
10h 40m 41s
True Declination
0° 00' 00"
Sunlit
Object was in daylight at epoch
Visualization orbit readout
Latitude
Unknown
Longitude
Unknown
Altitude
Unknown
Speed
Unknown
Apparent Right ascension
Unknown
Apparent Declination
Unknown
Sunlit
N/A
Visualization observer readout
Local Sidereal Time
07:35:49
Azimuth
Unknown
Elevation
Unknown
Doppler factor
Unknown
Orbital elements
Apogee altitude
485.774 km
Perigee altitude
484.266 km
Semi-major axis
6,863.157 km
Eccentricity
0.00011
Inclination
43.0001°
RAAN
160.1719°
Arg. of periapsis
246.2338°
True anomaly
113.85142°
Mean anomaly
113.8399°
Eccentric anomaly
113.84566°
Mean motion
3.81731 °/min
Orbital period
94.31 mins
BSTAR
0.000046814
Loading maneuver chart data...
Computing Atmospheric mass density...
Loading historical data...
Loading historical data...
Loading historical data...
Loading historical data...
Loading historical data...
Loading historical data...
Loading historical data...

Documentation

Showing up to 5 results
|